[[{"header":{"parameterUnit":"m.s-1","parameterCategory":1,"la1":30.2991,"la2":30.254,"lo1":-89.0895,"lo2":-89.0444,"dy":0.0017,"dx":0.0017,"nx":28,"ny":28,"refTime":"2024-12-16T03:00:00:Z","depth":0,"parameterNumber":2,"parameterNumberName":"U-component_of_WINDS"},"data":[0,0,0,0,0,0,0,0,0,0,0,0,0,0,0,0,0,0,0,0,0,0,0,0,0,0,0,0,0,0,0,0,0,0,0,0,0,0,0,0,0,0,0,0,0,0,0,0,0,0,0,0,0,0,0,0,0,0,-1.4953,-1.4953,0,-1.4978,-1.4978,-1.4979,-1.4924,-1.4922,-1.492,-1.4919,-1.4946,-1.4949,-1.4951,0,0,0,0,0,0,0,0,0,0,0,0,0,-1.4858,-1.486,-1.4953,-1.4953,-1.4953,-1.4978,-1.4979,-1.4979,-1.4924,-1.4922,-1.492,-1.4918,-1.4946,-1.4948,-1.4951,0,0,0,0,0,0,0,0,0,0,0,0,0,-1.4893,-1.4861,-1.4953,-1.4929,-1.4927,-1.4978,-1.4979,-1.4979,-1.4925,-1.4922,-1.4919,-1.4917,-1.4945,-1.4948,-1.4952,-1.5027,0,0,-1.4963,-1.4964,0,0,0,0,0,0,0,0,-1.4891,-1.4897,-1.4932,-1.4931,-1.4929,-1.4945,-1.4955,-1.4995,-1.4925,-1.4926,-1.4919,-1.4916,-1.4948,-1.4951,-1.4962,-1.5028,-1.503,-1.4963,-1.4965,-1.4967,-1.4968,0,0,0,0,0,0,0,-1.4889,-1.4895,-1.4963,-1.4933,-1.4931,-1.4918,-1.492,-1.4963,-1.4952,-1.4925,-1.4921,-1.4925,-1.4947,-1.4959,-1.4962,-1.503,-1.4963,-1.4966,-1.4968,-1.497,-1.5161,-1.5164,0,0,0,0,0,0,-1.4889,-1.4894,-1.4962,-1.4963,-1.4903,-1.4922,-1.4924,-1.4943,-1.4951,-1.495,-1.4927,-1.4923,-1.4954,-1.4958,-1.4963,-1.5053,-1.4967,-1.497,-1.4972,-1.5158,-1.5162,-1.5165,0,0,0,0,0,0,-1.4887,-1.4896,-1.4961,-1.4927,-1.4935,-1.4926,-1.4948,-1.4944,-1.4956,-1.4952,-1.495,-1.4942,-1.4952,-1.4958,-1.5012,-1.5054,-1.4972,-1.4975,-1.5155,-1.516,-1.5164,-1.5234,0,0,0,0,0,0,-1.4885,-1.4895,-1.4924,-1.4928,-1.4937,-1.5009,-1.495,-1.4947,-1.4963,-1.4956,-1.4965,-1.4964,-1.495,-1.5007,-1.5016,-1.5057,-1.4978,-1.5151,-1.5157,-1.5162,-1.5228,-1.5241,-1.5251,0,0,0,0,0,-1.4882,-1.4943,-1.4925,-1.4934,-1.4972,-1.5012,-1.5016,-1.4999,-1.4966,-1.4995,-1.4992,-1.4964,-1.5047,-1.5013,-1.5022,-1.5065,-1.5149,-1.5155,-1.5162,-1.5223,-1.5238,-1.5251,0,0,0,0,0,0,-1.4943,-1.4943,-1.4924,-1.4988,-1.5,-1.5002,-1.5038,-1.5015,-1.5037,-1.5031,-1.5008,-1.5011,-1.507,-1.5072,-1.5034,-1.514,-1.5092,-1.5101,-1.5136,-1.515,-1.5161,-1.516,-1.4981,0,0,0,0,0,-1.4964,-1.4996,-1.4994,-1.5051,-1.5058,-1.5047,-1.5064,-1.5049,-1.5061,-1.5066,-1.5068,-1.5081,-1.511,-1.513,-1.5156,-1.5228,-1.523,-1.5262,-1.5274,-1.5283,-1.5291,-1.5331,-1.5346,-1.5187,-1.5187,-1.5187,0,0,-1.5008,-1.5012,-1.5033,-1.5063,-1.5071,-1.5106,-1.5052,-1.509,-1.5116,-1.5072,-1.5124,-1.5125,-1.5138,-1.5202,-1.523,-1.5206,-1.5336,-1.5291,-1.5299,-1.5302,-1.5339,-1.5354,-1.5368,-1.5191,-1.5191,-1.519,0,0,-1.5106,-1.5111,-1.516,-1.5169,-1.5181,-1.5174,-1.5185,-1.5191,-1.5191,-1.5241,-1.521,-1.524,-1.529,-1.5302,-1.5314,-1.5417,-1.5392,-1.5426,-1.5486,-1.5525,-1.5538,-1.5549,-1.5587,-1.5601,-1.5434,-1.5434,-1.5434,0,-1.5159,-1.5209,-1.5188,-1.5229,-1.5244,-1.5205,-1.5255,-1.5265,-1.5285,-1.5297,-1.527,-1.5333,-1.5339,-1.5405,-1.5431,-1.5441,-1.5455,-1.5426,-1.5537,-1.5548,-1.5558,-1.5595,-1.5609,-1.5438,-1.5438,-1.5437,-1.5437,0,-1.5275,-1.531,-1.5348,-1.5369,-1.5388,-1.5433,-1.5419,-1.5441,-1.5425,-1.542,-1.5473,-1.5479,-1.5507,-1.5521,-1.5505,-1.5586,-1.5571,-1.5541,-1.5493,-1.5578,-1.5612,-1.5626,-1.5444,-1.5443,-1.5441,-1.544,0,0,-1.5413,-1.5422,-1.5437,-1.5446,-1.5457,-1.5484,-1.5528,-1.5555,-1.5575,-1.559,-1.5627,-1.5671,-1.5644,-1.5658,-1.5643,-1.5677,-1.576,-1.5643,-1.5643,-1.5666,-1.5851,-1.5875,-1.5891,-1.5742,-1.5745,-1.5747,-1.585,0,-1.5512,-1.5587,-1.5569,-1.5644,-1.5677,-1.5641,-1.5679,-1.569,-1.5687,-1.5716,-1.5712,-1.5744,-1.5704,-1.5713,-1.5745,-1.5743,-1.5797,-1.5735,-1.5778,-1.578,-1.5778,-1.5908,-1.5934,-1.6031,-1.5863,-1.5865,-1.5867,0,-1.5637,-1.5657,-1.5735,-1.5742,-1.5755,-1.579,-1.5814,-1.5841,-1.5853,-1.5848,-1.5865,-1.5843,-1.5887,-1.5838,-1.5899,-1.5858,-1.5874,-1.5876,-1.5879,-1.5884,-1.583,-1.5919,-1.6061,-1.6076,-1.5887,-1.5885,-1.5884,0,-1.5733,-1.5779,-1.5833,-1.5842,-1.585,-1.5876,-1.5881,-1.589,-1.5908,-1.5928,-1.594,-1.5966,-1.598,-1.6001,-1.5987,-1.5952,-1.6052,-1.6001,-1.6051,-1.6051,-1.6075,-1.6074,-1.6224,-1.6082,-1.6082,-1.6082,-1.6081,0,-1.5845,-1.5895,-1.5876,-1.5909,-1.5964,-1.5943,-1.5998,-1.5998,-1.6008,-1.6041,-1.601,-1.6042,-1.6021,-1.6052,-1.6041,-1.6095,-1.6101,-1.6099,-1.6097,-1.6104,-1.6104,-1.6115,-1.6109,-1.6085,-1.6085,-1.6084,-1.6083,0,-1.5962,-1.5951,-1.6007,-1.6011,-1.6013,-1.6053,-1.6056,-1.6088,-1.6082,-1.6124,-1.6133,-1.6125,-1.6159,-1.6147,-1.6183,-1.6176,-1.6245,-1.6232,-1.6241,-1.6239,-1.629,-1.6286,-1.6454,-1.6476,-1.6318,-1.632,-1.6321,0,-1.6036,-1.6074,-1.6081,-1.6101,-1.6108,-1.614,-1.6158,-1.6139,-1.6159,-1.6176,-1.6206,-1.6237,-1.6262,-1.6318,-1.6316,-1.6344,-1.6333,-1.6389,-1.6337,-1.6343,-1.6336,-1.6335,-1.6339,-1.6401,-1.6403,-1.6404,-1.6405,0,-1.6169,-1.6162,-1.6189,-1.6214,-1.6236,-1.6255,-1.6272,-1.629,-1.6272,-1.6296,-1.633,-1.6349,-1.6387,-1.6419,-1.6444,-1.645,-1.6426,-1.6422,-1.6435,-1.6444,-1.6448,-1.6448,-1.6272,-1.6418,-1.6417,-1.6416,-1.6415,-1.6415,-1.6268,-1.63,-1.6311,-1.6342,-1.6353,-1.6369,-1.6399,-1.6397,-1.6425,-1.6454,-1.6441,-1.6481,-1.6493,-1.6525,-1.6534,-1.6566,-1.6544,-1.6563,-1.6568,-1.6573,-1.6581,-1.6441,-1.657,-1.6569,-1.6569,-1.6569,-1.6569,0,-1.6401,-1.6406,-1.6435,-1.6459,-1.6484,-1.6458,-1.6475,-1.6498,-1.6534,-1.6547,-1.6571,-1.6612,-1.6643,-1.6643,-1.6672,-1.6698,-1.6687,-1.6706,-1.6705,-1.6707,-1.6598,-1.6584,-1.6714,-1.6714,-1.6714,-1.6714,-1.6714,-1.6714,-1.6474,-1.6527,-1.6521,-1.658,-1.6585,-1.6624,-1.6636,-1.6652,-1.6662,-1.6709,-1.6734,-1.6734,-1.6742,-1.6772,-1.6799,-1.6799,-1.6812,-1.6835,-1.6831,-1.6729,-1.6715,-1.6701,-1.6688,-1.6838,-1.6838,-1.6938,-1.6939,-1.6939]},{"header":{"parameterUnit":"m.s-1","parameterCategory":1,"la1":30.2991,"la2":30.254,"lo1":-89.0895,"lo2":-89.0444,"dy":0.0017,"dx":0.0017,"nx":28,"ny":28,"refTime":"2024-12-16T03:00:00:Z","depth":0,"parameterNumber":3,"parameterNumberName":"V-component_of_WINDS"},"data":[0,0,0,0,0,0,0,0,0,0,0,0,0,0,0,0,0,0,0,0,0,0,0,0,0,0,0,0,0,0,0,0,0,0,0,0,0,0,0,0,0,0,0,0,0,0,0,0,0,0,0,0,0,0,0,0,0,0,-0.89,-0.8901,0,-0.893,-0.893,-0.893,-0.8906,-0.8905,-0.8904,-0.8903,-0.8934,-0.8936,-0.8937,0,0,0,0,0,0,0,0,0,0,0,0,0,-0.8823,-0.8825,-0.89,-0.8901,-0.8901,-0.893,-0.893,-0.8931,-0.8907,-0.8905,-0.8904,-0.8903,-0.8933,-0.8935,-0.8937,0,0,0,0,0,0,0,0,0,0,0,0,0,-0.8855,-0.8825,-0.89,-0.8893,-0.8892,-0.893,-0.893,-0.8931,-0.8907,-0.8905,-0.8904,-0.8902,-0.8933,-0.8935,-0.8938,-0.8984,0,0,-0.8946,-0.8947,0,0,0,0,0,0,0,0,-0.8853,-0.8858,-0.8893,-0.8893,-0.8893,-0.8913,-0.8914,-0.8949,-0.8907,-0.8901,-0.8903,-0.8902,-0.8928,-0.8931,-0.894,-0.8986,-0.8987,-0.8946,-0.8948,-0.8949,-0.8949,0,0,0,0,0,0,0,-0.8851,-0.8857,-0.8912,-0.8894,-0.8894,-0.8888,-0.889,-0.892,-0.8923,-0.8902,-0.89,-0.8904,-0.8928,-0.8937,-0.894,-0.8988,-0.8946,-0.8948,-0.895,-0.8951,-0.9073,-0.9075,0,0,0,0,0,0,-0.885,-0.8855,-0.8911,-0.8913,-0.8869,-0.889,-0.8893,-0.8908,-0.8922,-0.8923,-0.8905,-0.8903,-0.8934,-0.8937,-0.8941,-0.8997,-0.8949,-0.8951,-0.8953,-0.9072,-0.9074,-0.9076,0,0,0,0,0,0,-0.8848,-0.8855,-0.891,-0.8883,-0.889,-0.8893,-0.891,-0.8909,-0.8919,-0.8925,-0.8925,-0.8915,-0.8933,-0.8938,-0.8974,-0.8998,-0.8952,-0.8955,-0.907,-0.9072,-0.9075,-0.911,0,0,0,0,0,0,-0.8846,-0.8854,-0.8872,-0.8884,-0.8891,-0.8942,-0.8911,-0.8911,-0.8924,-0.8921,-0.8934,-0.8935,-0.8932,-0.897,-0.8977,-0.9001,-0.8957,-0.9068,-0.9071,-0.9074,-0.9106,-0.9113,-0.9119,0,0,0,0,0,-0.8843,-0.8881,-0.8873,-0.888,-0.8914,-0.8944,-0.8948,-0.8943,-0.8926,-0.8944,-0.8947,-0.8934,-0.8994,-0.8974,-0.8981,-0.9007,-0.9066,-0.907,-0.9074,-0.9104,-0.9112,-0.9119,0,0,0,0,0,0,-0.8873,-0.8883,-0.8874,-0.8917,-0.8929,-0.8939,-0.8962,-0.8952,-0.897,-0.8967,-0.896,-0.8964,-0.9002,-0.9008,-0.8985,-0.9053,-0.9027,-0.9033,-0.9048,-0.9056,-0.9062,-0.906,-0.8959,0,0,0,0,0,-0.8884,-0.8907,-0.8914,-0.8951,-0.8958,-0.8959,-0.8972,-0.8967,-0.898,-0.8985,-0.8992,-0.9005,-0.9027,-0.9041,-0.9061,-0.9107,-0.9109,-0.9128,-0.9134,-0.9139,-0.9144,-0.9169,-0.9177,-0.9088,-0.9088,-0.9088,0,0,-0.8908,-0.8916,-0.8931,-0.8958,-0.8967,-0.8991,-0.8964,-0.8991,-0.9009,-0.899,-0.9024,-0.9029,-0.9043,-0.9085,-0.9103,-0.9091,-0.9169,-0.9144,-0.9148,-0.915,-0.9173,-0.9182,-0.9189,-0.909,-0.909,-0.909,0,0,-0.8964,-0.8972,-0.9004,-0.9014,-0.9028,-0.9028,-0.9036,-0.9047,-0.905,-0.9085,-0.9071,-0.9092,-0.9129,-0.914,-0.9151,-0.921,-0.9199,-0.9217,-0.925,-0.9274,-0.9281,-0.9287,-0.9309,-0.9317,-0.9221,-0.9221,-0.9221,0,-0.8992,-0.9028,-0.9022,-0.905,-0.9062,-0.9045,-0.9077,-0.9087,-0.9107,-0.9116,-0.9102,-0.9148,-0.9157,-0.92,-0.9215,-0.9223,-0.9232,-0.9216,-0.928,-0.9286,-0.9292,-0.9313,-0.9321,-0.9224,-0.9223,-0.9223,-0.9223,0,-0.9062,-0.9087,-0.9111,-0.9131,-0.9146,-0.9176,-0.9174,-0.9189,-0.9183,-0.9185,-0.9221,-0.923,-0.9252,-0.9261,-0.9256,-0.9304,-0.9296,-0.9281,-0.9256,-0.9303,-0.9322,-0.933,-0.9227,-0.9226,-0.9225,-0.9225,0,0,-0.9138,-0.9154,-0.9163,-0.9172,-0.9186,-0.9206,-0.9235,-0.9256,-0.927,-0.9284,-0.9308,-0.934,-0.9326,-0.9338,-0.9333,-0.9354,-0.9401,-0.9336,-0.9337,-0.9349,-0.9456,-0.9468,-0.9478,-0.9393,-0.9395,-0.9396,-0.9455,0,-0.9196,-0.9247,-0.9242,-0.929,-0.9313,-0.9297,-0.9323,-0.9334,-0.9336,-0.9356,-0.9358,-0.9381,-0.9361,-0.9368,-0.9388,-0.9391,-0.9423,-0.9387,-0.9417,-0.9418,-0.9415,-0.9488,-0.9501,-0.9556,-0.9463,-0.9464,-0.9465,0,-0.927,-0.9287,-0.9338,-0.9348,-0.9358,-0.9381,-0.94,-0.9419,-0.9432,-0.9432,-0.9445,-0.9436,-0.9465,-0.9438,-0.9479,-0.9454,-0.9466,-0.9469,-0.9471,-0.9475,-0.9445,-0.9495,-0.9574,-0.9583,-0.9477,-0.9476,-0.9475,0,-0.9322,-0.9357,-0.9392,-0.94,-0.9413,-0.943,-0.9436,-0.9447,-0.946,-0.9477,-0.9485,-0.9505,-0.9516,-0.9531,-0.9528,-0.9509,-0.957,-0.9542,-0.9571,-0.9571,-0.9586,-0.9585,-0.9669,-0.9591,-0.9591,-0.9591,-0.9591,0,-0.9387,-0.9419,-0.9416,-0.9438,-0.9473,-0.9466,-0.9501,-0.9505,-0.9515,-0.9537,-0.9524,-0.9545,-0.9539,-0.956,-0.9558,-0.9592,-0.9597,-0.9598,-0.9597,-0.96,-0.96,-0.9609,-0.9605,-0.9593,-0.9593,-0.9592,-0.9592,0,-0.9452,-0.9451,-0.9488,-0.9497,-0.95,-0.9526,-0.9534,-0.9554,-0.9555,-0.9583,-0.9589,-0.959,-0.9614,-0.9612,-0.9639,-0.9637,-0.968,-0.9674,-0.9676,-0.9675,-0.9704,-0.9702,-0.9798,-0.9811,-0.9723,-0.9724,-0.9725,0,-0.9495,-0.9519,-0.953,-0.9544,-0.9552,-0.9574,-0.9588,-0.9582,-0.9596,-0.9612,-0.9631,-0.9653,-0.9671,-0.971,-0.9713,-0.9733,-0.9729,-0.9761,-0.9732,-0.9734,-0.973,-0.973,-0.9732,-0.9767,-0.9768,-0.9769,-0.9769,0,-0.9571,-0.9569,-0.9588,-0.9608,-0.9624,-0.9639,-0.9653,-0.9665,-0.966,-0.9677,-0.9701,-0.9715,-0.9742,-0.9765,-0.9784,-0.9791,-0.978,-0.9778,-0.9786,-0.979,-0.9791,-0.9792,-0.9693,-0.9776,-0.9776,-0.9775,-0.9775,-0.9775,-0.9626,-0.9647,-0.9659,-0.9681,-0.9691,-0.9704,-0.9723,-0.9726,-0.9746,-0.9768,-0.9763,-0.9791,-0.9802,-0.9827,-0.9835,-0.9856,-0.9845,-0.9856,-0.9859,-0.9862,-0.9866,-0.9786,-0.986,-0.9859,-0.9859,-0.9859,-0.9859,0,-0.9702,-0.9709,-0.9729,-0.9749,-0.9767,-0.9754,-0.9768,-0.9784,-0.9808,-0.982,-0.9838,-0.9865,-0.9887,-0.9892,-0.9913,-0.9929,-0.9925,-0.9935,-0.9934,-0.9936,-0.9875,-0.9867,-0.9938,-0.9938,-0.9938,-0.9938,-0.9938,-0.9938,-0.9744,-0.9779,-0.9779,-0.9818,-0.9824,-0.9851,-0.986,-0.9872,-0.9882,-0.9913,-0.9931,-0.9934,-0.9943,-0.9964,-0.9984,-0.9985,-0.9994,-1.0006,-1.0005,-0.9948,-0.994,-0.9933,-0.9925,-1.0008,-1.0008,-1.0065,-1.0065,-1.0066]}]]